METEOR 2-17 DEB, 38284

Orbit data source: Space-Track

METEOR 2-17 DEB, 38284 is space debris in LEO originally from a launch on Sat, 30 Jan 1988 UTC launched from the Plesetsk Missile And Space Complex (PKMTR). Debris objects in space refer to the collection of defunct objects orbiting the Earth. Examples of debris include non-operational satellites, rocket bodies, and fragments generated from explosions, collisions, or faulty payload assembly.

Loading next visibility...
Identifier
38284, 1988-005AM
Orbit
LEO
Country
Flag of CISCIS
Related business
Manufacturer
Unknown
Mission
Spacecraft
Bus & Motor
Unknown
Mass
Unknown
Launch date (UTC)
1988-01-30 (38 years ago)
Launch vehicle
Unknown
Launch site
Plesetsk Missile And Space Complex (PKMTR)
Object type
Payload
Rocket body
Debris
Shape & HBR
Unknown
Radar Cross Section
Small (<0.1 m²)

Expand to show TLE details & history
Last TLE update: 1 year ago

TLE from 1 year ago
0 METEOR 2-17 DEB
1 38284U 88005AM  24156.26543218  .00003568  00000-0  24635-2 0  9999
2 38284  82.5280 150.6209 0024314 128.4108 231.9248 13.98778664489619
Epoch: 2024-06-04T06:22Z
TLE epoch observation values (Epoch: 2024-06-04T06:22:13.34Z)
Latitude
-0.00009°
Longitude
161.87571°
Altitude
911.888 km
Speed
7.39 km/s
True Right ascension
10h 02m 29s
True Declination
0° 00' 00"
Sunlit
Object was in daylight at epoch
Visualization orbit readout
Latitude
Unknown
Longitude
Unknown
Altitude
Unknown
Speed
Unknown
Apparent Right ascension
Unknown
Apparent Declination
Unknown
Sunlit
N/A
Visualization observer readout
Local Sidereal Time
14:44:33
Azimuth
Unknown
Elevation
Unknown
Doppler factor
Unknown
Orbital elements
Apogee altitude
912.844 km
Perigee altitude
877.476 km
Semi-major axis
7,273.297 km
Eccentricity
0.00243
Inclination
82.528°
RAAN
150.6209°
Arg. of periapsis
128.4108°
True anomaly
231.70588°
Mean anomaly
231.9248°
Eccentric anomaly
231.8153°
Mean motion
3.49902 °/min
Orbital period
102.89 mins
BSTAR
0.0024635
Loading maneuver chart data...
Computing Atmospheric mass density...
Loading historical data...
Loading historical data...
Loading historical data...
Loading historical data...
Loading historical data...
Loading historical data...
Loading historical data...

Documentation

Showing up to 5 results
|